• In Hungary
  • List of Countries
  • For 7 days
  • Water Temperature
  • Satellite Maps
  • Weather Map
  • News
  • Weather Widgets
  • user-avatar
    Login

    Hourly Weather Akalajon

    Today, 24 February, Saturday

    Time Temperature Precipitation Wind Pressure Humidity
    00:00 +27°C° 0 mm 1 mps 752 mmHg 83%
    01:00 +26°C° 0 mm 1 mps 752 mmHg 89%
    02:00 +26°C° 0 mm 1 mps 752 mmHg 90%
    03:00 +24°C° 0 mm 0 mps 752 mmHg 92%
    04:00 +24°C° 0 mm 0 mps 752 mmHg 93%
    05:00 +24°C° 0 mm 0 mps 752 mmHg 93%
    06:00 +26°C° 0 mm 1 mps 753 mmHg 93%
    07:00 +26°C° 0 mm 1 mps 753 mmHg 93%
    08:00 +29°C° 0 mm 1 mps 753 mmHg 82%
    09:00 +31°C° 0 mm 1 mps 753 mmHg 72%
    10:00 +34°C° 0 mm 1 mps 753 mmHg 61%
    11:00 +35°C° 1.1 mm 1 mps 753 mmHg 58%
    12:00 +36°C° 1.1 mm 1 mps 752 mmHg 54%
    13:00 +38°C° 1.1 mm 2 mps 752 mmHg 51%
    14:00 +36°C° 2.8 mm 2 mps 751 mmHg 60%
    15:00 +34°C° 2.8 mm 3 mps 751 mmHg 69%
    16:00 +31°C° 2.8 mm 3 mps 750 mmHg 78%
    17:00 +30°C° 2.6 mm 3 mps 751 mmHg 82%
    18:00 +29°C° 2.6 mm 2 mps 751 mmHg 86%
    19:00 +28°C° 2.6 mm 2 mps 752 mmHg 90%
    20:00 +28°C° 0.1 mm 2 mps 752 mmHg 91%
    21:00 +27°C° 0.1 mm 2 mps 753 mmHg 92%
    22:00 +27°C° 0.1 mm 2 mps 753 mmHg 93%
    23:00 +27°C° 0.2 mm 2 mps 753 mmHg 94%

    Tomorrow, 25 February, Sunday

    Time Temperature Precipitation Wind Pressure Humidity
    00:00 +27°C° 0.2 mm 2 mps 753 mmHg 95%
    01:00 +27°C° 0.2 mm 2 mps 753 mmHg 95%
    02:00 +27°C° 0 mm 2 mps 753 mmHg 95%
    03:00 +27°C° 0 mm 2 mps 752 mmHg 96%
    04:00 +27°C° 0 mm 2 mps 752 mmHg 96%
    05:00 +27°C° 0.2 mm 2 mps 753 mmHg 96%
    06:00 +27°C° 0.2 mm 1 mps 753 mmHg 96%
    07:00 +27°C° 0.2 mm 1 mps 753 mmHg 96%
    08:00 +28°C° 1.9 mm 1 mps 754 mmHg 92%
    09:00 +29°C° 1.9 mm 1 mps 754 mmHg 88%
    10:00 +30°C° 1.9 mm 2 mps 755 mmHg 84%
    11:00 +31°C° 0.9 mm 2 mps 754 mmHg 80%
    12:00 +33°C° 0.9 mm 3 mps 754 mmHg 75%
    13:00 +33°C° 0.9 mm 3 mps 753 mmHg 71%
    14:00 +33°C° 0.7 mm 3 mps 753 mmHg 71%
    15:00 +33°C° 0.7 mm 3 mps 752 mmHg 72%
    16:00 +33°C° 0.7 mm 4 mps 751 mmHg 73%
    17:00 +30°C° 0.2 mm 3 mps 752 mmHg 78%
    18:00 +29°C° 0.2 mm 3 mps 752 mmHg 84%
    19:00 +28°C° 0.2 mm 2 mps 752 mmHg 90%
    20:00 +27°C° 0.1 mm 2 mps 753 mmHg 91%
    21:00 +27°C° 0.1 mm 2 mps 754 mmHg 92%
    22:00 +27°C° 0.1 mm 2 mps 754 mmHg 94%
    23:00 +27°C° 0.2 mm 2 mps 754 mmHg 94%

    Day after tomorrow, 26 February, Monday

    Time Temperature Precipitation Wind Pressure Humidity
    00:00 +27°C° 0.2 mm 2 mps 754 mmHg 95%
    01:00 +26°C° 0.2 mm 3 mps 754 mmHg 96%
    02:00 +26°C° 0.1 mm 2 mps 753 mmHg 96%
    03:00 +26°C° 0.1 mm 2 mps 753 mmHg 96%
    04:00 +26°C° 0.1 mm 2 mps 752 mmHg 96%
    05:00 +26°C° 0 mm 2 mps 753 mmHg 96%
    06:00 +26°C° 0 mm 2 mps 753 mmHg 96%
    07:00 +26°C° 0 mm 2 mps 753 mmHg 96%
    08:00 +27°C° 0 mm 2 mps 754 mmHg 92%
    09:00 +28°C° 0 mm 2 mps 755 mmHg 87%
    10:00 +29°C° 0 mm 3 mps 755 mmHg 83%
    11:00 +30°C° 0.4 mm 2 mps 754 mmHg 76%
    12:00 +32°C° 0.4 mm 2 mps 754 mmHg 68%
    13:00 +34°C° 0.4 mm 2 mps 753 mmHg 61%
    14:00 +34°C° 1 mm 2 mps 752 mmHg 64%
    15:00 +32°C° 1 mm 2 mps 752 mmHg 68%
    16:00 +32°C° 1 mm 2 mps 751 mmHg 71%
    17:00 +30°C° 0.6 mm 2 mps 752 mmHg 77%
    18:00 +29°C° 0.6 mm 2 mps 752 mmHg 83%
    19:00 +28°C° 0.6 mm 2 mps 753 mmHg 88%
    20:00 +28°C° 0.3 mm 2 mps 753 mmHg 90%
    21:00 +27°C° 0.3 mm 2 mps 754 mmHg 91%
    22:00 +27°C° 0.3 mm 2 mps 754 mmHg 93%
    23:00 +27°C° 0.6 mm 2 mps 754 mmHg 94%

    27 February, Tuesday

    Time Temperature Precipitation Wind Pressure Humidity
    00:00 +26°C° 0.6 mm 2 mps 754 mmHg 94%
    01:00 +26°C° 0.6 mm 2 mps 754 mmHg 95%
    02:00 +26°C° 0.2 mm 1 mps 754 mmHg 95%
    03:00 +26°C° 0.2 mm 1 mps 753 mmHg 95%
    04:00 +26°C° 0.2 mm 1 mps 753 mmHg 95%
    05:00 +26°C° 0 mm 1 mps 753 mmHg 95%
    06:00 +26°C° 0 mm 1 mps 753 mmHg 94%
    07:00 +26°C° 0 mm 1 mps 754 mmHg 94%
    08:00 +27°C° 0 mm 1 mps 754 mmHg 88%
    09:00 +28°C° 0 mm 1 mps 755 mmHg 81%
    10:00 +30°C° 0 mm 1 mps 755 mmHg 75%
    11:00 +31°C° 0 mm 1 mps 755 mmHg 70%
    12:00 +32°C° 0 mm 1 mps 754 mmHg 65%
    13:00 +34°C° 0 mm 2 mps 753 mmHg 59%
    14:00 +34°C° 0 mm 2 mps 753 mmHg 59%
    15:00 +34°C° 0 mm 2 mps 752 mmHg 59%
    16:00 +34°C° 0 mm 2 mps 751 mmHg 58%
    17:00 +31°C° 0 mm 2 mps 752 mmHg 65%
    18:00 +30°C° 0 mm 1 mps 752 mmHg 72%
    19:00 +28°C° 0 mm 1 mps 753 mmHg 79%
    20:00 +28°C° 0.1 mm 1 mps 753 mmHg 82%
    21:00 +27°C° 0.1 mm 1 mps 754 mmHg 85%
    22:00 +27°C° 0.1 mm 1 mps 754 mmHg 87%
    23:00 +27°C° 0 mm 1 mps 754 mmHg 89%

    28 February, Wednesday

    Time Temperature Precipitation Wind Pressure Humidity
    00:00 +26°C° 0 mm 1 mps 754 mmHg 90%
    01:00 +24°C° 0 mm 0 mps 753 mmHg 92%
    02:00 +24°C° 0 mm 0 mps 753 mmHg 92%
    03:00 +26°C° 0 mm 1 mps 753 mmHg 93%
    04:00 +26°C° 0 mm 1 mps 753 mmHg 93%
    05:00 +26°C° 0 mm 1 mps 753 mmHg 93%
    06:00 +26°C° 0 mm 1 mps 754 mmHg 93%
    07:00 +26°C° 0 mm 1 mps 754 mmHg 93%
    08:00 +28°C° 0.3 mm 1 mps 754 mmHg 85%
    09:00 +30°C° 0.3 mm 1 mps 755 mmHg 78%
    10:00 +31°C° 0.3 mm 1 mps 755 mmHg 71%
    11:00 +32°C° 0.2 mm 1 mps 754 mmHg 67%
    12:00 +34°C° 0.2 mm 2 mps 753 mmHg 63%
    13:00 +35°C° 0.2 mm 2 mps 753 mmHg 59%
    14:00 +35°C° 0 mm 2 mps 752 mmHg 58%
    15:00 +35°C° 0 mm 2 mps 751 mmHg 57%
    16:00 +36°C° 0 mm 2 mps 751 mmHg 56%
    17:00 +34°C° 0.6 mm 2 mps 751 mmHg 67%
    18:00 +30°C° 0.6 mm 2 mps 752 mmHg 78%
    19:00 +28°C° 0.6 mm 2 mps 752 mmHg 90%
    20:00 +28°C° 0 mm 2 mps 753 mmHg 92%
    21:00 +27°C° 0 mm 2 mps 753 mmHg 93%
    22:00 +27°C° 0 mm 2 mps 754 mmHg 95%
    23:00 +27°C° 0.6 mm 2 mps 754 mmHg 96%

    1 March, Thursday

    Time Temperature Precipitation Wind Pressure Humidity
    00:00 +27°C° 0.6 mm 1 mps 754 mmHg 96%
    01:00 +27°C° 0.6 mm 1 mps 753 mmHg 96%
    02:00 +27°C° 0.2 mm 1 mps 753 mmHg 96%
    03:00 +27°C° 0.2 mm 2 mps 753 mmHg 97%
    04:00 +27°C° 0.2 mm 2 mps 753 mmHg 97%
    05:00 +27°C° 0.5 mm 1 mps 753 mmHg 96%
    06:00 +27°C° 0.5 mm 1 mps 754 mmHg 96%
    07:00 +27°C° 0.5 mm 1 mps 754 mmHg 96%
    08:00 +28°C° 0.4 mm 1 mps 754 mmHg 89%
    09:00 +29°C° 0.4 mm 2 mps 755 mmHg 83%
    10:00 +31°C° 0.4 mm 2 mps 755 mmHg 76%
    11:00 +32°C° 0.5 mm 2 mps 754 mmHg 70%
    12:00 +34°C° 0.5 mm 2 mps 753 mmHg 64%
    13:00 +36°C° 0.5 mm 2 mps 753 mmHg 59%
    14:00 +35°C° 1 mm 2 mps 752 mmHg 64%
    15:00 +34°C° 1 mm 2 mps 752 mmHg 69%
    16:00 +32°C° 1 mm 2 mps 752 mmHg 74%
    17:00 +30°C° 0.3 mm 2 mps 752 mmHg 80%
    18:00 +29°C° 0.3 mm 1 mps 752 mmHg 85%
    19:00 +28°C° 0.3 mm 1 mps 753 mmHg 91%
    20:00 +28°C° 0.3 mm 1 mps 753 mmHg 92%
    21:00 +28°C° 0.3 mm 1 mps 754 mmHg 93%
    22:00 +27°C° 0.3 mm 2 mps 754 mmHg 94%
    23:00 +27°C° 0.1 mm 1 mps 754 mmHg 95%
    Show more